Regional Weather Roundup
Issued by NWS Green Bay, WI

Home | Current Version | Previous Version | Graphics & Text | Print | Product List | Glossary Off
Versions: 1 2 3 4 5 6 7 8 9 10 11 12 13 14 15 16 17 18 19 20 21 22 23 24 25 26 27 28 29 30 31 32 33 34 35 36 37 38 39 40 41 42 43 44 45 46 47 48 49 50

000
ASUS43 KGRB 241600
RWRGRB

NORTH-CENTRAL AND NORTHEAST WISCONSIN REGIONAL WEATHER ROUNDUP
NATIONAL WEATHER SERVICE GREEN BAY WI
1100 AM CDT SUN JUL 24 2016

WIZ005-009-010>012-018-019-241700-
NORTH CENTRAL WISCONSIN

CITY           SKY/WX    TMP DP  RH WIND       PRES   REMARKS
IRONWOOD       PTSUNNY   75  70  83 W12       29.76R
MANITOWISH WTR NOT AVBL
ARBOR VITAE    NOT AVBL
EAGLE RIVER    NOT AVBL
LAND O LAKES   NOT AVBL
RHINELANDER    CLOUDY    77  69  76 VRB6      29.83S
PHILLIPS       NOT AVBL
ANTIGO         NOT AVBL
TOMAHAWK       NOT AVBL
MERRILL        NOT AVBL
$$

WIZ013-073-241700-
NORTHEAST WISCONSIN

CITY           SKY/WX    TMP DP  RH WIND       PRES   REMARKS
IRON MOUNTAIN  CLOUDY    78  69  73 S9        29.79F
MARINETTE      NOT AVBL
$$

WIZ017-030-035>037-045-241700-
CENTRAL WISCONSIN

CITY           SKY/WX    TMP DP  RH WIND       PRES   REMARKS
MEDFORD        NOT AVBL
WAUSAU         CLOUDY    74  73  97 W6        29.80S FOG
MOSINEE        CLOUDY    75  75 100 W7        29.83S FOG
MARSHFIELD     CLOUDY    76  73  91 W9        29.82R
WISC RAPIDS    CLOUDY    80  74  81 W7        29.82S
STEVENS POINT  NOT AVBL
WAUPACA        NOT AVBL
SHAWANO        NOT AVBL
CLINTONVILLE   NOT AVBL
WAUTOMA        CLOUDY    79  77  94 CALM      29.82S
$$

WIZ038-039-048-051-241700-
FOX VALLEY

CITY           SKY/WX    TMP DP  RH WIND       PRES   REMARKS
NWS GREEN BAY  CLOUDY    75  75 100 S6        29.82S
APPLETON       CLOUDY    75  75 100 S5        29.81R
OSHKOSH        CLOUDY    80  75  84 SW9       29.82R
FOND DU LAC    CLOUDY    81  75  82 SW10      29.83R
$$

WIZ022-050-052-241700-
EAST CENTRAL WISCONSIN

CITY           SKY/WX    TMP DP  RH WIND       PRES   REMARKS
EPHRAIM        NOT AVBL
WASHINGTON ISL NOT AVBL
STURGEON BAY   CLOUDY    73  70  90 S10       29.82R
MANITOWOC      NOT AVBL
SHEBOYGAN      CLOUDY    73  70  90 SE10      29.84F FOG
$$

LMZ563-521-522-541>543-241700-
LAKESHORE

STATION/POSITION TIME  TEMP    WIND        PRES    VSBY  WAVE
                       AIR SEA DIR/SP/G                  HT/PER
                 (UTC) (F)     (DEG/KT/KT) (MB)    (MI)  (FT/S)
SHEBOYGAN LKSHOR 1500   63     150/  9/ 10 1011.4R
KEWAUNEE LKSHORE 1500   64     190/ 14/ 18 1009.5F
NORTHPORT PIER   1500   73     180/  7/ 14 1008.8S
N MID LAKE BUOY  1450   70 69  200/ 19/ 23 1008.0F         3/ 4
CHAMBERS ISLAND  1500   75     170/  4/  8 1008.8R
MENOMINEE LKSHOR 1500   74     200/  8/ 11 1008.0R
$$




USA.gov is the U.S. government's official web portal to all federal, state and local government web resources and services.